Vertical_Velocity
-1 0 -1 -1 -1 -2 -1 -1 -0 -1 -1 0 0 0 1 -0 -1 -1 -1 -1 -0 -1 -1 -1 -1 -1 -1 -1 -2 -1 -2 -2 -1 -2 -1 -1 -1 -2 -2 -1 -1 -1 -1 -2 -1 -1 -1
-0 0 -1 -0 -1 -1 -1 -1 -1 -0 0 -0 0 0 0 -0 -0 -1 -0 0 -1 -1 -2 -1 -1 -2 -0 -1 -3 -2 -1 -0 -0 -0 -2 -2 -1 -1 -1 -1 -0 -1 -1 -2 -0 -0 -3
0 -0 -1 -0 -1 -2 -1 -1 -1 -0 0 0 -0 -0 -0 -0 -0 -1 -1 -1 -1 -1 -1 -1 -1 0 1 -6 -1 -3 -2 -2 -1 -1 -1 -0 -0 0 1 0 -0 -1 -1 -1 1 -1 -2
-1 -1 -1 -0 -1 -1 -2 -2 -1 -1 -1 -0 1 0 -0 -0 0 -1 -0 -1 -1 -1 -1 -1 -2 -2 -3 -3 -4 -3 -2 -2 -1 -1 -0 -0 -0 -1 -1 -0 -1 -1 -1 -5 -5 -1 1
-1 -0 -1 -0 -1 -2 -2 -2 -1 -1 0 -0 -0 -0 -0 -1 -1 -1 -1 -0 -1 -0 -1 -2 -3 -1 -5 -2 1 -3 -1 -2 -1 -1 -1 -0 -1 -1 1 -0 -2 -3 -3 -2 -4 1 1
-1 -0 -1 1 -0 -1 -1 -0 -1 -1 -0 -0 -0 -1 -1 -1 -1 -1 -2 -1 -1 -1 -1 -1 -3 -0 -2 -3 -3 -4 -2 -1 -2 -1 -1 -0 -1 -2 1 -1 -2 -3 -6 -3 1 -10 -1
-0 -0 -0 1 -0 -1 -1 -2 -1 -1 1 0 -1 -1 -1 -1 -1 -0 -0 -0 -0 -0 -1 -3 -1 -2 -1 -3 -4 -2 -2 -2 4 1 -0 -1 -0 -2 -2 -1 -0 1 1 -3 4 -5 -7
-1 0 0 0 -1 -0 -1 -1 -1 -0 -0 -1 -2 -1 -1 -0 -1 -1 -1 -1 -2 -0 -2 -2 -2 -2 -2 -2 -0 -5 -3 -3 -3 -4 -2 -1 -1 -1 -1 -1 0 0 -3 -2 -4 3 -6
-0 -1 0 0 0 -0 -0 -1 -0 -0 -1 -1 -1 -0 -0 -1 -1 -1 -0 -2 -2 -1 -1 -1 -2 -2 -4 -2 -2 -3 -1 -2 -2 -2 -2 -1 -1 -1 -1 -1 0 1 -1 -2 -5 -9 -1
-0 -1 1 0 0 -0 0 -0 -0 -0 -1 -1 -1 -1 -0 -1 2 -1 -2 -1 -1 -1 -1 -1 -3 -3 -2 -2 -2 -4 -3 -5 -2 -3 -3 -2 -1 -1 -1 -1 -3 -3 -0 -1 -0 1 -5
-0 0 0 1 -1 -0 1 -0 -0 -1 -1 -2 -1 -1 -1 -0 -1 -1 -1 -2 -2 -2 -1 -1 -2 -2 -3 -2 -1 -1 -4 1 -2 -2 -2 0 -1 -1 -0 1 -1 -1 -2 -1 -0 -2 1
-1 1 -0 0 -0 0 0 -1 -2 -1 -0 -1 -1 -1 -1 -1 -2 -1 -2 -1 -2 -1 -3 -1 -1 -1 -2 -1 -1 -1 -2 -2 -2 -1 -3 -1 1 -1 1 1 2 -0 -1 -2 -1 -1 -2
-1 1 1 1 1 0 -0 -1 -1 -1 -1 -1 -1 -1 -1 -1 -1 -1 -1 -1 -1 -2 0 -0 -3 -3 -2 -3 -1 -2 -2 -2 -6 -8 -6 -4 -3 -0 1 -3 -1 -4 -3 -2 -6 -2 -5
-1 -0 1 -0 1 -0 -0 -1 -2 -1 -0 0 0 -1 -1 -1 -1 -1 -1 -3 -3 -1 -2 -2 -3 -2 -2 -3 -2 -2 -3 -3 0 -0 -3 -4 -16 -3 -1 2 -1 -2 -2 0 -1 -1 -2
0 0 0 -1 -0 0 -0 -1 -1 -0 -0 -1 -1 -1 -1 -1 -2 -1 -1 -2 -2 -2 -1 -2 -2 -2 -3 -1 -2 -3 -2 -1 0 1 -6 -3 -6 1 -1 2 6 -0 -0 -1 0 -0 -0
0 -1 -0 -1 -0 -1 -1 -1 -1 -1 -2 -2 -1 -1 -2 -1 -2 -3 -2 -2 -2 -1 -1 -1 -1 -1 -1 -2 -2 -1 -2 0 -1 -1 -2 -1 -12 -2 -1 -2 1 -2 -1 -2 -1 -4 -3
-0 -0 0 -1 -1 -0 -0 -0 -1 -2 -1 -1 -1 -3 -3 -3 -2 -2 -1 -1 -2 -2 -1 -2 -2 -2 -2 -3 -2 -2 -0 -2 1 -2 -2 1 -0 -7 2 -0 2 -0 -0 -0 -2 1 -3
-0 -1 1 -0 -1 -0 -1 -2 -2 -2 -2 -2 -2 -3 -2 -2 -2 -1 -0 -0 -0 -0 -0 -1 -1 -0 -0 -2 -4 -2 -2 1 -1 0 -2 -1 -1 -7 -5 2 -0 -2 -1 1 -2 -2 -2
0 -0 -1 0 -1 -2 -2 -1 -2 -1 -1 -2 -2 -2 -1 -1 -1 -0 -1 -1 -1 1 0 0 -1 0 1 1 -5 -0 -0 -1 2 -1 -0 -4 1 -5 -5 0 -0 -1 2 4 4 5 -7
-1 -1 0 -0 -0 -1 -2 -2 -2 -2 -2 -2 -1 -1 -2 -2 0 1 -0 -1 0 -0 0 0 -0 0 1 -0 2 -2 -0 -1 -0 -0 2 5 -3 0 -6 10 10 -6 6 4 3 0 -3
-0 -1 -0 -0 -0 -0 -1 -1 -1 -2 -2 -0 -1 -2 -3 -3 0 -2 -1 -2 -2 -2 -1 0 -2 -0 -2 -3 -4 -5 -4 -1 -2 -1 -2 3 -7 1 -11 1 2 -6 5 6 -4 2 -4
0 -0 -0 -0 0 -0 -2 -2 -0 -1 -3 -2 -1 0 -1 -1 -1 -1 0 -2 1 0 1 -2 -1 -0 0 -6 4 -0 6 11 -3 -9 0 -1 -2 3 -22 1 0 -11 17 6 3 1 -5
0 0 -0 -1 -0 0 -1 -2 -2 -2 -0 -1 0 -1 -1 -1 0 1 -1 -0 2 4 -4 -0 -1 -3 -2 0 -2 4 1 2 2 -0 3 3 0 3 -11 2 -4 -4 1 3 5 1 4
-0 -0 -0 -1 0 0 -0 0 -0 -1 -1 -1 1 -1 -2 -8 1 4 1 -0 2 0 -3 0 -1 1 2 0 2 -2 1 -1 1 5 3 0 4 5 -7 -0 -3 0 2 0 2 -2 -1
-1 -1 -1 -0 -1 -1 -1 -0 2 1 -0 -0 1 -0 -0 -12 -3 1 -2 1 -1 4 5 -2 3 -3 -1 7 2 -6 -5 -6 -3 -3 -0 4 4 -2 -2 1 -12 -14 0 1 3 -8 2
-0 1 -1 -1 -1 -1 0 0 -0 -0 -0 -1 1 1 2 1 -17 1 -6 1 -4 -1 -2 0 -1 -1 0 1 6 1 -2 -6 -1 -1 -1 1 5 1 8 1 -1 -7 -0 3 1 -23 -1
-2 -2 -0 -1 -1 -0 -1 -2 -2 -1 1 0 -1 2 4 1 -2 0 -0 2 2 1 8 -8 -4 -5 4 2 4 1 -4 -3 -3 1 -5 0 0 -6 8 -3 -15 -4 2 -1 -0 -11 7
-3 -2 -0 -1 0 0 -0 1 -0 -1 -1 -0 -2 3 2 0 -3 -1 -3 -1 3 -1 3 6 4 -8 0 -2 2 -2 -0 -0 -2 2 -7 7 -1 0 5 3 -16 2 0 9 10 10 -7
-4 -0 -0 -0 -2 -1 -4 -1 -1 -0 0 -0 -2 3 2 -1 -7 -0 -4 1 -1 2 2 -2 -8 8 13 -4 -1 7 -2 4 5 -2 3 -1 -16 8 5 -12 2 -3 0 19 5 -2 3
Height
3173 3174 3175 3175 3175 3175 3175 3175 3175 3174 3173 3173 3172 3171 3171 3170 3170 3169 3168 3167 3167 3166 3165 3165 3163 3162 3161 3159 3158 3155 3152 3150 3148 3146 3145 3144 3143 3142 3141 3141 3141 3140 3140 3139 3138 3137 3135
3175 3176 3176 3177 3177 3176 3177 3177 3176 3175 3175 3174 3174 3173 3172 3172 3171 3170 3168 3168 3168 3167 3166 3165 3164 3162 3161 3160 3157 3154 3152 3149 3147 3145 3144 3143 3142 3141 3141 3140 3140 3139 3138 3138 3136 3134 3132
3177 3177 3178 3178 3178 3178 3178 3178 3178 3177 3176 3175 3175 3174 3173 3172 3171 3170 3169 3168 3168 3167 3167 3166 3165 3163 3162 3161 3157 3154 3151 3148 3146 3144 3143 3142 3141 3141 3141 3139 3139 3138 3137 3136 3133 3132 3129
3178 3178 3179 3179 3179 3179 3179 3179 3179 3178 3177 3176 3176 3175 3174 3173 3172 3171 3170 3169 3168 3168 3167 3166 3165 3164 3162 3159 3156 3154 3151 3148 3146 3144 3142 3142 3142 3141 3140 3140 3138 3137 3136 3133 3131 3129 3127
3178 3179 3180 3180 3180 3180 3181 3180 3180 3179 3178 3177 3176 3175 3174 3173 3172 3172 3171 3170 3169 3168 3167 3167 3166 3164 3163 3161 3158 3154 3151 3148 3146 3143 3142 3142 3143 3141 3141 3139 3138 3136 3136 3134 3130 3125 3123
3179 3180 3181 3181 3181 3181 3182 3181 3181 3180 3179 3178 3177 3176 3175 3174 3173 3172 3171 3170 3169 3168 3168 3167 3166 3166 3164 3162 3158 3155 3152 3149 3147 3144 3144 3143 3142 3141 3140 3139 3138 3136 3134 3131 3127 3121 3117
3179 3180 3181 3182 3182 3182 3183 3182 3181 3180 3179 3178 3177 3176 3175 3174 3173 3171 3171 3170 3171 3171 3169 3168 3167 3165 3164 3162 3160 3157 3153 3151 3148 3145 3143 3142 3143 3141 3139 3138 3138 3136 3133 3128 3125 3118 3114
3180 3181 3182 3183 3183 3183 3183 3183 3182 3181 3179 3178 3177 3176 3175 3174 3172 3171 3170 3169 3169 3171 3169 3168 3167 3166 3164 3162 3161 3157 3155 3153 3149 3146 3144 3144 3142 3141 3140 3138 3137 3133 3129 3126 3120 3117 3110
3181 3181 3182 3183 3183 3184 3184 3183 3182 3181 3180 3179 3178 3177 3175 3174 3173 3172 3170 3169 3168 3168 3169 3169 3168 3166 3165 3163 3160 3158 3156 3153 3150 3147 3144 3143 3143 3141 3139 3137 3135 3132 3128 3123 3118 3112 3108
3182 3182 3183 3184 3184 3184 3184 3183 3183 3182 3181 3179 3179 3177 3176 3175 3176 3172 3171 3169 3168 3167 3169 3171 3168 3166 3165 3162 3161 3158 3155 3154 3151 3148 3145 3144 3142 3139 3137 3136 3133 3128 3125 3120 3114 3110 3107
3183 3183 3184 3184 3185 3185 3185 3184 3183 3182 3181 3180 3179 3178 3177 3175 3174 3173 3172 3170 3169 3170 3171 3172 3169 3167 3164 3163 3162 3159 3155 3153 3151 3149 3149 3145 3140 3137 3136 3134 3131 3128 3122 3116 3111 3107 3105
3183 3183 3184 3184 3185 3185 3185 3184 3184 3182 3181 3180 3179 3178 3177 3176 3174 3173 3171 3170 3170 3172 3169 3170 3168 3166 3164 3162 3160 3158 3155 3153 3151 3149 3146 3143 3139 3137 3134 3131 3127 3125 3119 3112 3108 3107 3106
3183 3184 3184 3185 3185 3185 3185 3184 3184 3183 3181 3180 3179 3178 3177 3176 3175 3173 3172 3171 3172 3169 3173 3171 3168 3165 3163 3161 3159 3157 3155 3152 3150 3147 3143 3140 3138 3135 3133 3130 3127 3124 3117 3112 3111 3107 3105
3183 3184 3185 3185 3185 3185 3184 3184 3183 3182 3181 3180 3179 3178 3178 3176 3175 3174 3172 3172 3171 3172 3171 3170 3168 3165 3164 3161 3159 3157 3154 3151 3149 3147 3144 3140 3135 3135 3132 3128 3126 3121 3120 3119 3123 3113 3104
3182 3183 3184 3184 3184 3184 3183 3183 3182 3181 3180 3179 3179 3178 3177 3176 3175 3174 3174 3172 3171 3171 3170 3168 3166 3164 3163 3161 3160 3156 3153 3151 3149 3147 3148 3142 3137 3132 3130 3126 3125 3120 3121 3121 3116 3110 3107
3181 3182 3183 3183 3183 3183 3183 3182 3181 3180 3179 3179 3178 3177 3177 3175 3174 3173 3173 3172 3170 3169 3168 3167 3165 3164 3162 3160 3159 3156 3152 3151 3149 3147 3145 3143 3136 3130 3128 3126 3122 3121 3121 3118 3117 3117 3109
3180 3181 3181 3182 3182 3181 3181 3180 3180 3179 3178 3177 3177 3176 3175 3174 3173 3172 3171 3170 3169 3168 3167 3167 3164 3162 3161 3159 3157 3155 3153 3151 3147 3145 3143 3140 3137 3132 3125 3123 3118 3118 3116 3116 3116 3114 3112
3178 3179 3180 3179 3180 3179 3179 3178 3178 3177 3176 3176 3174 3174 3173 3172 3173 3170 3169 3168 3167 3165 3165 3163 3162 3160 3158 3157 3154 3152 3151 3149 3146 3143 3140 3137 3132 3126 3123 3117 3115 3114 3113 3114 3114 3109 3106
3176 3176 3177 3176 3176 3176 3176 3176 3175 3174 3174 3173 3172 3171 3170 3170 3169 3167 3167 3166 3165 3163 3162 3161 3160 3158 3157 3156 3155 3150 3147 3146 3142 3140 3137 3134 3128 3123 3117 3115 3113 3111 3109 3108 3109 3106 3096
3173 3174 3174 3174 3173 3173 3173 3173 3172 3171 3171 3171 3170 3169 3167 3166 3165 3165 3163 3163 3162 3161 3159 3158 3158 3157 3155 3153 3152 3147 3144 3141 3139 3135 3133 3128 3124 3123 3119 3114 3109 3106 3100 3100 3101 3098 3086
3169 3170 3170 3170 3170 3170 3169 3169 3168 3168 3167 3168 3167 3165 3164 3164 3163 3162 3161 3161 3159 3158 3157 3156 3154 3153 3151 3149 3145 3142 3139 3136 3134 3131 3128 3123 3115 3112 3109 3104 3101 3095 3090 3084 3084 3082 3079
3165 3166 3166 3166 3166 3165 3165 3165 3165 3164 3163 3164 3163 3162 3160 3159 3158 3158 3157 3156 3155 3154 3153 3151 3150 3149 3147 3144 3142 3137 3134 3132 3127 3124 3119 3115 3107 3100 3096 3095 3092 3086 3081 3079 3077 3075 3065
3160 3161 3161 3162 3162 3161 3161 3160 3160 3159 3159 3158 3157 3156 3155 3154 3153 3153 3152 3151 3151 3150 3148 3146 3145 3143 3140 3138 3134 3130 3128 3125 3121 3118 3114 3108 3104 3099 3089 3088 3086 3077 3073 3072 3068 3066 3063
3155 3155 3156 3156 3156 3156 3156 3156 3155 3155 3154 3153 3152 3151 3149 3146 3147 3147 3146 3145 3144 3143 3141 3139 3138 3135 3133 3129 3125 3123 3120 3118 3115 3110 3106 3101 3099 3097 3086 3084 3083 3072 3067 3063 3060 3058 3056
3149 3150 3150 3151 3150 3150 3149 3149 3150 3150 3149 3148 3147 3146 3143 3139 3140 3140 3140 3139 3137 3136 3134 3132 3130 3129 3124 3120 3118 3113 3110 3109 3107 3104 3100 3098 3095 3093 3088 3080 3066 3063 3061 3060 3054 3046 3048
3144 3144 3144 3144 3143 3143 3143 3142 3142 3142 3142 3142 3141 3139 3136 3132 3131 3133 3131 3132 3130 3127 3125 3124 3122 3120 3117 3114 3111 3106 3104 3102 3099 3097 3095 3093 3091 3090 3083 3080 3068 3060 3057 3054 3050 3041 3039
3137 3137 3137 3137 3137 3137 3137 3136 3136 3135 3135 3134 3133 3132 3129 3124 3123 3126 3124 3123 3122 3121 3117 3115 3114 3113 3111 3107 3104 3102 3097 3098 3092 3088 3088 3087 3084 3080 3073 3071 3058 3054 3052 3050 3049 3045 3035
3130 3130 3130 3130 3130 3129 3128 3128 3128 3127 3126 3125 3125 3123 3121 3114 3113 3114 3115 3115 3113 3113 3111 3109 3109 3104 3103 3102 3098 3096 3088 3086 3082 3081 3082 3081 3080 3072 3067 3063 3056 3050 3050 3050 3042 3031 3024
3123 3123 3122 3122 3121 3120 3119 3118 3118 3118 3117 3117 3116 3114 3110 3104 3100 3102 3102 3102 3101 3100 3101 3098 3098 3097 3095 3093 3091 3087 3085 3077 3075 3069 3071 3069 3070 3066 3063 3053 3051 3046 3043 3041 3031 3022 3016